Weather History for Marianna, FL

Change the Weather History Date:

Friday, April 5, 2013

  Actual Average Record
Temperature  
Mean Temperature 52 °F 64 °F  
Max Temperature 59 °F 77 °F 88 °F (1999)
Min Temperature 45 °F 51 °F 39 °F (2004)
Degree Days  
Heating Degree Days 13    
Month to date heating degree days 25  
Since 1 July heating degree days 1334  
Cooling Degree Days 0    
Month to date cooling degree days 2  
Year to date cooling degree days 73  
Growing Degree Days 2 (Base 50)    
Moisture  
Dew Point 48 °F    
Average Humidity 84    
Maximum Humidity 100    
Minimum Humidity 67    
Precipitation  
Precipitation 0.01 in 0.17 in 3.47 in (2008)
Month to date precipitation 0.42 0.86  
Year to date precipitation 17.27 16.38  
Sea Level Pressure  
Sea Level Pressure 29.99 in    
Wind  
Wind Speed 6 mph (North)    
Max Wind Speed 13 mph    
Max Gust Speed -    
Visibility 9 miles    
Events Rain    
T = Trace of Precipitation, MM = Missing Value Source: NWS Daily Summary

Daily Weather History Graph

Daily Weather History Graph

Search for Another Location

Airport:

Trip Planner

Search our weather history database for the weather conditions in past years. The results will help you decide how hot, cold, wet, or windy it might be!

Date:

Astronomy

Apr. 05, 2013 Rise Set
Actual Time 6:24 AM CDT 7:02 PM CDT
Civil Twilight 6:00 AM CDT 7:26 PM CDT
Nautical Twilight 5:31 AM CDT 7:55 PM CDT
Astronomical Twilight 5:02 AM CDT 8:25 PM CDT
Moon 3:12 AM CDT (4/5) 2:42 PM CDT (4/5)
Length of Visible Light 13h 26m
Length of Day
12h 38m
Waning Crescent, 23% of the Moon is Illuminated
Apr 5
Waning Crescent
Apr 10
New
Apr 18
First Quarter
Apr 25
Full
May 2
Last Quarter

Hourly Weather History & Observations

Time (CDT) Temp. Dew Point Humidity Pressure Visibility Wind Dir Wind Speed Gust Speed Precip Events Conditions
12:53 AM 54.0 °F 52.0 °F 93% 29.89 in 10.0 mi East 6.9 mph - 0.00 in   Overcast
1:53 AM 54.0 °F 52.0 °F 93% 29.89 in 2.5 mi NNE 8.1 mph - 0.00 in Rain Light Rain
2:01 AM 53.6 °F 51.8 °F 94% 29.89 in 4.0 mi ENE 5.8 mph - 0.00 in   Overcast
2:53 AM 53.1 °F 52.0 °F 96% 29.89 in 6.0 mi NE 3.5 mph - 0.00 in Rain Light Rain
3:53 AM 53.1 °F 51.1 °F 93% 29.87 in 9.0 mi NE 6.9 mph - 0.01 in   Overcast
4:53 AM 52.0 °F 51.1 °F 97% 29.89 in 10.0 mi North 5.8 mph - N/A   Overcast
5:53 AM 51.1 °F 48.9 °F 92% 29.92 in 4.0 mi North 12.7 mph - 0.00 in Rain Light Rain
6:53 AM 50.0 °F 48.0 °F 93% 29.95 in 10.0 mi North 9.2 mph - 0.00 in   Overcast
6:58 AM 50.0 °F 48.2 °F 94% 29.94 in 10.0 mi NNE 6.9 mph - N/A   Overcast
7:09 AM 50.0 °F 48.2 °F 94% 29.96 in 10.0 mi North 8.1 mph - N/A   Overcast
7:53 AM 51.1 °F 48.0 °F 89% 29.98 in 10.0 mi North 10.4 mph - N/A   Overcast
8:53 AM 50.0 °F 46.9 °F 89% 30.01 in 10.0 mi North 11.5 mph - N/A   Overcast
9:39 AM 50.0 °F 46.4 °F 87% 30.01 in 10.0 mi NNE 9.2 mph - N/A   Overcast
9:53 AM 51.1 °F 46.0 °F 83% 30.02 in 10.0 mi North 9.2 mph - N/A   Overcast
10:49 AM 53.6 °F 46.4 °F 77% 30.03 in 10.0 mi North 5.8 mph - N/A   Overcast
10:53 AM 54.0 °F 46.0 °F 75% 30.03 in 10.0 mi NNW 9.2 mph - N/A   Overcast
11:53 AM 55.0 °F 46.9 °F 74% 30.03 in 10.0 mi NNW 10.4 mph - N/A   Overcast
12:53 PM 57.0 °F 46.9 °F 69% 30.02 in 10.0 mi North 9.2 mph - N/A   Overcast
1:53 PM 57.0 °F 46.9 °F 69% 30.00 in 10.0 mi North 8.1 mph - N/A   Overcast
2:53 PM 57.0 °F 46.9 °F 69% 30.00 in 10.0 mi North 12.7 mph - N/A   Overcast
3:53 PM 57.9 °F 46.0 °F 65% 29.99 in 10.0 mi North 9.2 mph - N/A   Overcast
4:53 PM 57.9 °F 46.9 °F 67% 30.00 in 10.0 mi North 8.1 mph - N/A   Overcast
5:53 PM 57.9 °F 46.9 °F 67% 30.01 in 10.0 mi NNW 10.4 mph - N/A   Overcast
6:53 PM 57.0 °F 46.9 °F 69% 30.03 in 10.0 mi Calm Calm - N/A   Clear
7:53 PM 52.0 °F 48.0 °F 86% 30.04 in 10.0 mi Calm Calm - N/A   Clear
8:53 PM 48.0 °F 46.0 °F 93% 30.07 in 10.0 mi Calm Calm - N/A   Clear
9:53 PM 48.9 °F 46.0 °F 90% 30.08 in 10.0 mi Calm Calm - N/A   Clear
10:53 PM 46.9 °F 44.1 °F 90% 30.08 in 10.0 mi Calm Calm - N/A   Clear
11:53 PM 46.0 °F 43.0 °F 89% 30.09 in 10.0 mi Calm Calm - N/A   Clear